Location: Newark
(31.0436°N, 112.2008°E)
Time: 07:41:12
(UTC+00:00)

N. Korean satellite - Visible Passes

Search period start: 29 January 2020 00:00
Search period end: 08 February 2020 00:00
Orbit: 454 x 507 km, 97.2° (Epoch: 28 January)

Date Brightness Start Highest point End Pass type
(mag) Time Alt. Az. Time Alt. Az. Time Alt. Az.
29 Jan 9.7 21:24:13 10° NE 21:26:32 16° E 21:28:51 10° SE visible
29 Jan 7.8 22:56:59 10° NNW 22:59:48 22° WNW 23:02:39 10° SW visible
30 Jan 6.8 22:30:55 10° N 22:34:26 49° WNW 22:37:59 10° SSW visible
31 Jan 10.0 10:36:10 10° WSW 10:37:47 13° W 10:39:23 10° WNW visible
31 Jan 7.0 22:05:21 10° NNE 22:08:59 66° E 22:12:38 10° S visible
01 Feb 8.8 21:40:17 10° NE 21:43:27 27° E 21:46:38 10° SSE visible
02 Feb 10.1 21:16:14 10° ENE 21:17:51 12° E 21:19:28 10° ESE visible
02 Feb 7.5 22:48:03 10° NNW 22:51:13 28° WNW 22:54:24 10° SW visible
03 Feb 6.5 22:22:10 10° N 22:25:49 67° WNW 22:29:28 10° SSW visible
04 Feb 7.6 21:56:45 10° NNE 22:00:20 49° E 22:03:55 10° S visible
05 Feb 9.3 21:31:54 10° NE 21:34:46 21° E 21:37:39 10° SSE visible
06 Feb 7.2 22:39:10 10° N 22:42:35 37° WNW 22:46:01 10° SW visible
07 Feb 6.6 22:13:27 10° N 22:17:09 90° NNE 22:20:52 10° SSW visible
